Flag for Norway Weather past 2 weeks in Jørpeland, Norway

Now
63 °F

Scattered clouds.


Feels Like: 63 °F
Forecast: 53 / 56 °F
Wind: 6 mph from South

Location: Stavanger / Sola

Current Time: Aug 31, 2015 at 11:27:14 AM

Latest Report: Aug 31, 2015 at 10:50 AM


Visibility: N/A

Pressure: 30.04 "Hg

Humidity: 77%

Dew point: 55 °F

Location of JørpelandLocation

Historic Weather in Jørpeland — Graph

°F

Jørpeland temperature yesterday

Maximum temperature yesterday: 66 °F (at 12:20 PM)
Minimum temperature yesterday: 55 °F (at 5:50 AM)
Average temperature yesterday: 61 °F

Past Weeks' High & Low Weather Summary

 TemperatureHumidityPressure
High79 °F (Aug 23, 2:20 PM)100% (Aug 16, 9:20 AM)30.24 "Hg (Aug 16, 9:20 AM)
Low54 °F (Aug 28, 2:50 AM)34% (Aug 19, 4:20 PM)29.47 "Hg (Aug 27, 1:20 PM)
Average65 °F68%29.95 "Hg
* Reported Aug 16 9:20 AM — Aug 31 9:50 AM, Jørpeland, Weather by CustomWeather, © 2015

Note: Actual official high and low records may vary slightly from our data, if they occured in-between our weather recording intervals... More about our weather records

Advertising

Jørpeland weather history for previous 24 hours

 ConditionsComfort  
Time TempWeatherWind HumidityBarometerVisibility
9:50 AM
Mon, Aug 31
61 °FScattered clouds.5 mph77%30.04 "HgN/A
9:20 AM59 °FScattered clouds.7 mph82%30.04 "HgN/A
8:50 AM57 °FScattered clouds.6 mph88%30.04 "HgN/A
8:20 AM55 °FScattered clouds.7 mph88%30.04 "HgN/A
7:50 AM55 °FScattered clouds.7 mph88%30.04 "HgN/A
7:20 AM55 °FPassing clouds.7 mph88%30.07 "HgN/A
6:50 AM55 °FPartly cloudy.7 mph88%30.07 "HgN/A
6:20 AM55 °FPassing clouds.6 mph88%30.07 "HgN/A
5:50 AM55 °FPassing clouds.6 mph88%30.07 "HgN/A
5:20 AM54 °FPassing clouds.7 mph94%30.07 "HgN/A
4:50 AM54 °FPassing clouds.5 mph94%30.07 "HgN/A
3:50 AM54 °FPassing clouds.3 mph94%30.07 "HgN/A
2:50 AM54 °FPassing clouds.6 mph94%30.07 "HgN/A
1:50 AM55 °FPassing clouds.3 mph94%30.07 "HgN/A
12:50 AM55 °FPassing clouds.6 mph94%30.09 "HgN/A
12:20 AM55 °FPassing clouds.6 mph88%30.09 "HgN/A
11:50 PM
Sun, Aug 30
55 °FPassing clouds.3 mph88%30.09 "HgN/A
11:20 PM55 °FPassing clouds.7 mph88%30.09 "HgN/A
10:50 PM57 °FPassing clouds.7 mph88%30.09 "HgN/A
10:20 PM57 °FPassing clouds.6 mph88%30.09 "HgN/A
9:50 PM59 °FPassing clouds.3 mph88%30.09 "HgN/A
9:20 PM59 °FScattered clouds.5 mph88%30.09 "HgN/A
8:50 PM59 °FScattered clouds.3 mph88%30.09 "HgN/A
8:20 PM61 °FScattered clouds.3 mph83%30.07 "HgN/A
7:50 PM63 °FScattered clouds.6 mph77%30.07 "HgN/A
7:20 PM63 °FScattered clouds.8 mph77%30.07 "HgN/A
6:50 PM63 °FScattered clouds.9 mph77%30.07 "HgN/A
6:20 PM63 °FScattered clouds.8 mph73%30.07 "HgN/A
5:50 PM63 °FScattered clouds.10 mph77%30.09 "HgN/A
5:20 PM64 °FScattered clouds.10 mph73%30.09 "HgN/A
4:50 PM64 °FScattered clouds.13 mph73%30.09 "HgN/A
4:20 PM64 °FScattered clouds.13 mph73%30.09 "HgN/A
3:50 PM66 °FScattered clouds.15 mph64%30.09 "HgN/A
3:20 PM66 °FScattered clouds.15 mph64%30.09 "HgN/A
2:50 PM66 °FScattered clouds.14 mph68%30.09 "HgN/A
2:20 PM66 °FScattered clouds.14 mph68%30.07 "HgN/A
1:50 PM66 °FScattered clouds.15 mph68%30.07 "HgN/A
1:20 PM66 °FPassing clouds.14 mph68%30.07 "HgN/A
12:50 PM64 °FPassing clouds.15 mph68%30.07 "HgN/A
12:20 PM66 °FScattered clouds.12 mph68%30.07 "HgN/A
11:50 AM64 °FScattered clouds.12 mph73%30.07 "HgN/A
11:20 AM64 °FScattered clouds.12 mph73%30.07 "HgN/A
Weather by CustomWeather, © 2015

See weather overviewHow to use our weather pages